Location: Lake Harris Campground
(43.9775°N, 74.1317°W)
Time: 07:05:29
(UTC-04:00)

ISS - All Passes

Search period start: 28 August 2014 00:00
Search period end: 07 September 2014 00:00
Orbit: 414 x 419 km, 51.6° (Epoch: 27 August)

Date Brightness Start Highest point End Pass type
(mag) Time Alt. Az. Time Alt. Az. Time Alt. Az.
28 Aug - 10:41:14 10° SE 10:41:25 10° SE 10:41:35 10° SE daylight
28 Aug - 12:14:17 10° SW 12:17:36 74° SE 12:20:56 10° ENE daylight
28 Aug - 13:51:40 10° WNW 13:54:36 28° NNW 13:57:32 10° NE daylight
28 Aug - 15:29:23 10° NW 15:32:04 22° N 15:34:44 10° ENE daylight
28 Aug - 17:06:06 10° NW 17:09:21 47° NNE 17:12:36 10° E daylight
28 Aug - 18:43:05 10° WNW 18:45:58 27° SW 18:48:50 10° SSE daylight
29 Aug - 11:26:01 10° SW 11:29:11 44° SE 11:32:23 10° ENE daylight
29 Aug - 13:02:53 10° W 13:05:59 35° NNW 13:09:06 10° NE daylight
29 Aug - 14:40:45 10° NW 14:43:23 21° N 14:46:01 10° NE daylight
29 Aug - 16:17:41 10° NW 16:20:47 34° NNE 16:23:52 10° E daylight
29 Aug - 17:54:23 10° WNW 17:57:36 45° SW 18:00:48 10° SE daylight
30 Aug - 10:37:57 10° SSW 10:40:47 26° SE 10:43:38 10° ENE daylight
30 Aug - 12:14:08 10° WSW 12:17:22 48° NNW 12:20:38 10° NE daylight
30 Aug - 13:51:59 10° WNW 13:54:39 22° N 13:57:20 10° NE daylight
30 Aug - 15:29:11 10° NW 15:32:07 27° NNE 15:35:02 10° ENE daylight
30 Aug - 17:05:47 10° WNW 17:09:07 77° SSW 17:12:27 10° SE daylight
30 Aug - 18:44:38 10° WSW 18:45:19 11° SW 18:46:00 10° SW daylight
31 Aug - 09:50:18 10° S 09:52:24 16° SE 09:54:31 10° E daylight
31 Aug - 11:25:27 10° WSW 11:28:46 74° NNW 11:32:06 10° NE daylight
31 Aug - 13:03:06 10° WNW 13:05:54 24° N 13:08:42 10° NE daylight
31 Aug - 14:40:36 10° NW 14:43:23 23° N 14:46:09 10° ENE daylight
31 Aug - 16:17:13 10° NW 16:20:33 67° NNE 16:23:52 10° ESE daylight
31 Aug - 17:54:38 10° W 17:56:58 18° SW 17:59:17 10° S daylight
01 Sep - 10:36:52 10° SW 10:40:10 69° SE 10:43:30 10° ENE daylight
01 Sep - 12:14:10 10° WNW 12:17:08 29° NNW 12:20:06 10° NE daylight
01 Sep - 13:51:55 10° NW 13:54:34 22° N 13:57:14 10° ENE daylight
01 Sep - 15:28:39 10° NW 15:31:53 45° NNE 15:35:06 10° E daylight
01 Sep - 17:05:34 10° WNW 17:08:31 29° SW 17:11:27 10° SSE daylight
02 Sep - 09:48:27 10° SSW 09:51:36 40° SE 09:54:45 10° ENE daylight
02 Sep - 11:25:13 10° W 11:28:21 37° NNW 11:31:29 10° NE daylight
02 Sep - 13:03:05 10° NW 13:05:43 21° N 13:08:21 10° NE daylight
02 Sep - 14:40:03 10° NW 14:43:07 33° NNE 14:46:11 10° E daylight
02 Sep - 16:16:43 10° WNW 16:19:57 49° SW 16:23:11 10° SE daylight
03 Sep - 09:00:17 10° SSW 09:03:02 24° SE 09:05:47 10° E daylight
03 Sep - 10:36:19 10° WSW 10:39:34 52° NNW 10:42:51 10° NE daylight
03 Sep - 12:14:07 10° WNW 12:16:49 22° N 12:19:31 10° NE daylight
03 Sep - 13:51:22 10° NW 13:54:16 27° NNE 13:57:10 10° ENE daylight
03 Sep - 15:27:57 10° WNW 15:31:18 83° SSW 15:34:37 10° SE daylight
03 Sep - 17:06:19 10° WSW 17:07:31 12° SW 17:08:43 10° SSW daylight
04 Sep - 08:12:34 10° SSE 08:14:29 15° SE 08:16:24 10° E daylight
04 Sep - 09:47:28 10° WSW 09:50:48 80° NNW 09:54:08 10° ENE daylight
04 Sep - 11:25:04 10° WNW 11:27:53 25° NNW 11:30:43 10° NE daylight
04 Sep - 13:02:36 10° NW 13:05:21 23° N 13:08:06 10° ENE daylight
04 Sep - 14:39:13 10° NW 14:42:32 62° NNE 14:45:50 10° ESE daylight
04 Sep - 16:16:30 10° W 16:18:59 19° SW 16:21:27 10° S daylight
05 Sep - 08:58:45 10° SW 09:02:02 62° SE 09:05:20 10° ENE daylight
05 Sep - 10:35:57 10° W 10:38:57 30° NNW 10:41:57 10° NE daylight
05 Sep - 12:13:43 10° NW 12:16:22 21° N 12:19:01 10° NE daylight
05 Sep - 13:50:29 10° NW 13:53:41 42° NNE 13:56:52 10° E daylight
05 Sep - 15:27:19 10° WNW 15:30:20 32° SW 15:33:21 10° SSE daylight
06 Sep - 08:10:12 10° SSW 08:13:17 36° SE 08:16:23 10° ENE daylight
06 Sep - 09:46:51 10° W 09:50:00 39° NNW 09:53:10 10° NE daylight
06 Sep - 11:24:42 10° NW 11:27:20 21° N 11:29:58 10° NE daylight
06 Sep - 13:01:42 10° NW 13:04:44 31° NNE 13:07:46 10° E daylight
06 Sep - 14:38:19 10° WNW 14:41:36 55° SW 14:44:51 10° SE daylight
